This is the latest recevied weather packets stored in our database for station/object PD2BVG. If no packets are shown the sender has not sent any weather packets the latest 1 day(s).
| Time | Temp. | Humidity | Pressure | Rain* | Wind** | Luminosity | Snow |
|---|---|---|---|---|---|---|---|
| 1778031634 | 10° C | 81% | 1010.2 hPa | 0 mm | 3.58 m/s, 354° | 0 W/m² | - |
| 1778031573 | 10° C | 81% | 1010.2 hPa | 0 mm | 3.58 m/s, 338° | 0 W/m² | - |
| 1778031513 | 10° C | 81% | 1010.3 hPa | 0 mm | 3.58 m/s, 338° | 0 W/m² | - |
| 1778031449 | 10° C | 81% | 1010.3 hPa | 0 mm | 3.13 m/s, 333° | 0 W/m² | - |
| 1778031390 | 10° C | 81% | 1010.2 hPa | 0 mm | 2.68 m/s, 347° | 0 W/m² | - |
| 1778031328 | 10° C | 81% | 1010.2 hPa | 0 mm | 2.68 m/s, 327° | 0 W/m² | - |
| 1778031270 | 10° C | 81% | 1010.2 hPa | 0 mm | 2.68 m/s, 343° | 0 W/m² | - |
| 1778031209 | 10° C | 81% | 1010.2 hPa | 0 mm | 2.68 m/s, 354° | 0 W/m² | - |
| 1778031150 | 10° C | 81% | 1010.2 hPa | 0 mm | 3.13 m/s, 326° | 0 W/m² | - |
| 1778031089 | 10° C | 81% | 1010.3 hPa | 0 mm | 3.58 m/s, 336° | 0 W/m² | - |
| 1778031029 | 10° C | 81% | 1010.3 hPa | 0 mm | 3.13 m/s, 344° | 0 W/m² | - |
| 1778030970 | 10° C | 81% | 1010.3 hPa | 0 mm | 3.13 m/s, 0° | 0 W/m² | - |
| 1778030909 | 10° C | 81% | 1010.2 hPa | 0 mm | 2.68 m/s, 337° | 0 W/m² | - |
| 1778030850 | 10° C | 81% | 1010.2 hPa | 0 mm | 2.24 m/s, 330° | 0 W/m² | - |
| 1778030790 | 10° C | 81% | 1010.2 hPa | 0 mm | 2.68 m/s, 0° | 0 W/m² | - |
| 1778030729 | 10° C | 81% | 1010.2 hPa | 0 mm | 2.68 m/s, 11° | 0 W/m² | - |
| 1778030669 | 10° C | 81% | 1010.2 hPa | 0 mm | 2.68 m/s, 326° | 0 W/m² | - |
| 1778030609 | 10° C | 81% | 1010.2 hPa | 0 mm | 2.68 m/s, 331° | 0 W/m² | - |
| 1778030550 | 10° C | 80% | 1010.2 hPa | 0 mm | 3.13 m/s, 336° | 0 W/m² | - |
| 1778030491 | 10° C | 80% | 1010.3 hPa | 0 mm | 2.68 m/s, 326° | 0 W/m² | - |
| 1778030433 | 10° C | 80% | 1010.2 hPa | 0 mm | 2.24 m/s, 344° | 0 W/m² | - |
| 1778030371 | 10° C | 80% | 1010.3 hPa | 0 mm | 2.68 m/s, 343° | 0 W/m² | - |
| 1778030310 | 10° C | 80% | 1010.2 hPa | 0 mm | 3.13 m/s, 358° | 0 W/m² | - |
| 1778030249 | 10° C | 80% | 1010.2 hPa | 0 mm | 3.13 m/s, 343° | 0 W/m² | - |
| 1778030190 | 10° C | 80% | 1010.3 hPa | 0 mm | 3.13 m/s, 0° | 0 W/m² | - |
* Rain latest hour (hover to see other rain measurements)
** Current wind speed in m/s (hover to see current wind gust speed)